| time (UTC) | temp F | wind direction | speed MPH | gust MPH | rain 1hr in | rain 24hr in | rain mn in | humidity % | barometer mb |
| 20260506123021 | 52 | 134 | 4.0 | 12.0 | 0.00 | 0.00 | 0.00 | 94 | 1017.4 |
| 20260506121516 | 51 | 158 | 4.0 | 10.0 | 0.00 | 0.00 | 0.00 | 94 | 1016.9 |
| 20260506120012 | 52 | 162 | 5.0 | 11.0 | 0.00 | 0.00 | 0.00 | 93 | 1016.7 |
| 20260506114512 | 52 | 174 | 4.0 | 13.0 | 0.00 | 0.00 | 0.00 | 93 | 1016.7 |
| 20260506113010 | 52 | 161 | 5.0 | 14.0 | 0.00 | 0.00 | 0.00 | 93 | 1016.7 |
| 20260506111506 | 52 | 155 | 7.0 | 13.0 | 0.00 | 0.00 | 0.00 | 93 | 1016.6 |
| 20260506110004 | 52 | 125 | 5.0 | 10.0 | 0.00 | 0.00 | 0.00 | 92 | 1016.3 |
| 20260506104602 | 52 | 131 | 3.0 | 7.0 | 0.00 | 0.00 | 0.00 | 92 | 1016.1 |
| 20260506103058 | 52 | 143 | 2.0 | 7.0 | 0.00 | 0.00 | 0.00 | 92 | 1015.8 |
| 20260506101556 | 52 | 221 | 2.0 | 6.0 | 0.00 | 0.00 | 0.00 | 91 | 1015.6 |
| 20260506100055 | 53 | 116 | 3.0 | 9.0 | 0.00 | 0.00 | 0.00 | 91 | 1015.6 |
| 20260506094551 | 53 | 148 | 3.0 | 9.0 | 0.00 | 0.00 | 0.00 | 91 | 1015.5 |
| 20260506093051 | 53 | 125 | 3.0 | 13.0 | 0.00 | 0.00 | 0.00 | 91 | 1015.5 |
| 20260506091546 | 54 | 208 | 3.0 | 9.0 | 0.00 | 0.00 | 0.00 | 90 | 1015.3 |
| 20260506090043 | 54 | 98 | 2.0 | 10.0 | 0.00 | 0.00 | 0.00 | 89 | 1015.3 |
| 20260506084540 | 55 | 120 | 3.0 | 11.0 | 0.00 | 0.00 | 0.00 | 88 | 1015.2 |
| 20260506083042 | 55 | 139 | 5.0 | 12.0 | 0.00 | 0.00 | 0.00 | 88 | 1015.2 |
| 20260506081533 | 55 | 166 | 4.0 | 11.0 | 0.00 | 0.00 | 0.00 | 87 | 1015.2 |
| 20260506073026 | 55 | 169 | 4.0 | 9.0 | 0.00 | 0.00 | 0.00 | 87 | 1014.8 |
| 20260506071525 | 56 | 83 | 3.0 | 9.0 | 0.00 | 0.00 | 0.00 | 86 | 1014.7 |
| 20260506061529 | 56 | 188 | 2.0 | 9.0 | 0.00 | 0.00 | 0.00 | 86 | 1014.3 |
| 20260506044520 | 57 | 129 | 4.0 | 12.0 | 0.00 | 0.00 | 0.00 | 85 | 1014.1 |
| 20260506043016 | 58 | 174 | 4.0 | 10.0 | 0.00 | 0.00 | 0.00 | 85 | 1013.9 |
| 20260506041513 | 58 | 143 | 5.0 | 11.0 | 0.00 | 0.00 | 0.00 | 85 | 1013.8 |
| 20260506040015 | 59 | 168 | 4.0 | 11.0 | 0.00 | 0.00 | 0.00 | 84 | 1013.5 |
| 20260506034512 | 59 | 140 | 4.0 | 10.0 | 0.00 | 0.00 | 0.00 | 83 | 1013.4 |
| 20260506033011 | 60 | 144 | 2.0 | 7.0 | 0.00 | 0.00 | 0.00 | 82 | 1013.3 |
| 20260506031514 | 61 | 155 | 2.0 | 8.0 | 0.00 | 0.00 | 0.00 | 80 | 1013.1 |
| 20260506030008 | 62 | 131 | 2.0 | 9.0 | 0.00 | 0.00 | 0.00 | 79 | 1013.1 |
| 20260506024509 | 63 | 146 | 3.0 | 10.0 | 0.00 | 0.00 | 0.00 | 77 | 1013.0 |
| 20260506023008 | 64 | 204 | 3.0 | 10.0 | 0.00 | 0.00 | 0.00 | 76 | 1013.1 |
| 20260506021507 | 64 | 183 | 4.0 | 9.0 | 0.00 | 0.00 | 0.00 | 75 | 1013.1 |
| 20260506020005 | 64 | 153 | 3.0 | 11.0 | 0.00 | 0.00 | 0.00 | 74 | 1013.1 |
| 20260506014510 | 64 | 164 | 4.0 | 11.0 | 0.00 | 0.00 | 0.00 | 75 | 1013.2 |
| 20260506013003 | 64 | 110 | 4.0 | 12.0 | 0.00 | 0.00 | 0.00 | 74 | 1013.0 |
| 20260506011503 | 65 | 68 | 5.0 | 13.0 | 0.00 | 0.00 | 0.00 | 74 | 1013.0 |
| 20260506010002 | 65 | 158 | 5.0 | 10.0 | 0.00 | 0.00 | 0.00 | 75 | 1013.0 |
| 20260506004628 | 65 | 110 | 3.0 | 9.0 | 0.00 | 0.00 | 0.00 | 75 | 1013.0 |
| 20260506003100 | 65 | 121 | 4.0 | 10.0 | 0.00 | 0.00 | 0.00 | 74 | 1013.1 |
| 20260506001600 | 65 | 181 | 5.0 | 12.0 | 0.00 | 0.00 | 0.00 | 73 | 1013.2 |
| 20260506000056 | 65 | 167 | 4.0 | 11.0 | 0.00 | 0.00 | 0.00 | 74 | 1013.2 |
| 20260505234614 | 65 | 181 | 4.0 | 12.0 | 0.00 | 0.00 | 0.00 | 75 | 1013.4 |
| 20260505233054 | 64 | 134 | 4.0 | 10.0 | 0.00 | 0.00 | 0.00 | 75 | 1013.6 |
| 20260505231553 | 64 | 150 | 4.0 | 12.0 | 0.00 | 0.00 | 0.00 | 75 | 1013.7 |
| 20260505230053 | 64 | 163 | 3.0 | 9.0 | 0.00 | 0.00 | 0.00 | 75 | 1013.8 |
| 20260505224550 | 64 | 166 | 3.0 | 9.0 | 0.00 | 0.00 | 0.00 | 77 | 1013.9 |
| 20260505223100 | 63 | 156 | 4.0 | 9.0 | 0.00 | 0.00 | 0.00 | 77 | 1014.0 |
| 20260505221604 | 64 | 177 | 3.0 | 9.0 | 0.00 | 0.00 | 0.00 | 77 | 1014.1 |
| 20260505220057 | 63 | 172 | 4.0 | 10.0 | 0.00 | 0.00 | 0.00 | 78 | 1014.2 |
| 20260505214602 | 63 | 172 | 3.0 | 11.0 | 0.00 | 0.00 | 0.00 | 79 | 1014.3 |
| 20260505213046 | 62 | 155 | 3.0 | 8.0 | 0.00 | 0.00 | 0.00 | 79 | 1014.4 |
| 20260505211542 | 62 | 154 | 3.0 | 11.0 | 0.00 | 0.00 | 0.00 | 79 | 1014.5 |
| 20260505210042 | 62 | 167 | 4.0 | 10.0 | 0.00 | 0.00 | 0.00 | 79 | 1014.5 |
| 20260505204539 | 62 | 162 | 3.0 | 9.0 | 0.00 | 0.00 | 0.00 | 80 | 1014.6 |
| 20260505203037 | 61 | 141 | 3.0 | 8.0 | 0.00 | 0.00 | 0.00 | 80 | 1014.7 |
| 20260505201534 | 61 | 168 | 4.0 | 10.0 | 0.00 | 0.00 | 0.00 | 80 | 1014.7 |
| 20260505200036 | 60 | 143 | 2.0 | 9.0 | 0.00 | 0.00 | 0.00 | 81 | 1014.7 |
| 20260505194533 | 60 | 77 | 4.0 | 8.0 | 0.00 | 0.00 | 0.00 | 81 | 1014.7 |
| 20260505193033 | 60 | 100 | 3.0 | 8.0 | 0.00 | 0.00 | 0.00 | 82 | 1014.7 |
| 20260505191532 | 60 | 170 | 3.0 | 11.0 | 0.00 | 0.00 | 0.00 | 82 | 1014.7 |
| 20260505190032 | 60 | 130 | 4.0 | 13.0 | 0.00 | 0.00 | 0.00 | 82 | 1014.7 |
| 20260505184531 | 59 | 101 | 2.0 | 11.0 | 0.00 | 0.00 | 0.00 | 83 | 1014.8 |
| 20260505183041 | 59 | 242 | 4.0 | 13.0 | 0.00 | 0.00 | 0.00 | 83 | 1014.8 |
| 20260505181528 | 59 | 156 | 4.0 | 11.0 | 0.00 | 0.00 | 0.00 | 84 | 1014.6 |
| 20260505180028 | 58 | 103 | 3.0 | 9.0 | 0.00 | 0.00 | 0.00 | 85 | 1014.6 |
| 20260505174527 | 58 | 152 | 3.0 | 12.0 | 0.00 | 0.00 | 0.00 | 86 | 1014.7 |
| 20260505173032 | 57 | 113 | 3.0 | 9.0 | 0.00 | 0.00 | 0.00 | 86 | 1014.7 |
| 20260505171525 | 57 | 165 | 4.0 | 8.0 | 0.00 | 0.00 | 0.00 | 86 | 1014.6 |
| 20260505170027 | 57 | 184 | 2.0 | 7.0 | 0.00 | 0.00 | 0.00 | 87 | 1014.6 |
| 20260505164524 | 57 | 127 | 3.0 | 10.0 | 0.00 | 0.00 | 0.00 | 87 | 1014.6 |
| 20260505163023 | 57 | 195 | 5.0 | 10.0 | 0.00 | 0.00 | 0.00 | 88 | 1014.6 |
| 20260505161527 | 57 | 197 | 4.0 | 9.0 | 0.00 | 0.00 | 0.00 | 88 | 1014.6 |
| 20260505153019 | 55 | 96 | 3.0 | 10.0 | 0.00 | 0.00 | 0.00 | 91 | 1014.3 |
| 20260505151517 | 55 | 139 | 4.0 | 10.0 | 0.00 | 0.00 | 0.00 | 91 | 1014.2 |
| 20260505124600 | 53 | 128 | 6.0 | 13.0 | 0.00 | 0.00 | 0.00 | 91 | 1012.7 |